User: anonymous   Login
Location: Unspecified
(0.0000°N, 0.0000°E)
Time: 14:41:49
(UTC+01:00)
Language:

GP-B - Orbit

View from above orbital plane
View from above orbital plane
View from above satellite
View from above satellite

Ground track
Ground track

The orbit data is extracted from the following two-line orbital elements,

1 28230U 04014A   14302.95185296  .00000869  00000-0  11921-3 0  2037
2 28230 089.8798 138.1312 0002441 087.9525 272.1977 14.77706478567095
Epoch (UTC): 29 October 2014 22:50:40
Eccentricity: 0.0002441
inclination: 89.8798°
perigee height: 635 km
apogee height: 638 km
right ascension of ascending node: 138.1312°
argument of perigee: 87.9525°
revolutions per day: 14.77706478
mean anomaly at epoch: 272.1977°
orbit number at epoch: 56709

The dashed part of the orbit path shows where the satellite is in the earth's shadow,  

DLR